カタログに戻る

KUIPER-00290

運用中通信LEO
NORAD 68592·PAYLOAD·🇺🇸 United States

打ち上げ Apr 4, 2026 から Cape Canaveral Space Force Station

Loading…

次のパス (今後24時間)

TLE

最新Source: CelesTrak SupGP

元期: Sep 14, 2026, 20:18 UTC

1 68592C 26072V   26257.84629630  .00520270  00000+0  70031-1 0  2571
2 68592  51.9006 141.6724 0000756  84.9116 230.2479 14.78238179    13

AllMySatでKUIPER-00290をリアルタイム追跡

Download on the App Store